User: anonymous   Login
Location: Voyageurs National Park
(48.5020°N, 92.9292°W)
Time: 13:25:59
(UTC-05:00)
Language:

Terra - Orbit

View from above orbital plane
View from above orbital plane
View from above satellite
View from above satellite

Ground track
Ground track

The orbit data is extracted from the following two-line orbital elements,

1 25994U 99068A   16179.11534605  .00000163  00000-0  46297-4 0  9992
2 25994  98.2091 253.2747 0001483  78.4023 281.7350 14.57111632878965
Epoch (UTC): 27 June 2016 02:46:05
Eccentricity: 0.0001483
inclination: 98.2091°
perigee height: 701 km
apogee height: 703 km
right ascension of ascending node: 253.2747°
argument of perigee: 78.4023°
revolutions per day: 14.57111632
mean anomaly at epoch: 281.7350°
orbit number at epoch: 87896

The dashed part of the orbit path shows where the satellite is in the earth's shadow,  

DLR